Hourly Data Report for October 21, 2016

All times are specified in Local Standard Time (LST). Add 1 hour to adjust for Daylight Saving Time where and when it is observed.

ST LEONARD CS
NEW BRUNSWICK

47°09'28.050" N
67°49'55.014" W
245.00 m
810I001
71019
WIY

Download Data

Hourly Data (October 2016)
Hourly Data Report for October 21, 2016
Temp Definition
°C
Dew Point Temp Definition
°C
Rel Hum Definition
%
Wind Dir Definition
10's deg

Wind Spd Definition
km/h
Visibility Definition
km
Stn Press Definition
kPa
Hmdx Definition


Wind Chill Definition


Weather Definition


TIME
00:00 7.4 6.4 94 9 8   99.41     LegendNANA
01:00 7.6 6.3 92 10 11   99.34     LegendNANA
02:00 7.4 6.2 92 9 10   99.27     LegendNANA
03:00 7.4 6.0 91 9 13   99.15     LegendNANA
04:00 7.5 5.5 87 9 14   99.06     LegendNANA
05:00 6.8 5.5 91 10 15   99.00     LegendNANA
06:00 6.5 5.5 93 7 11   98.99     LegendNANA
07:00 6.5 5.7 95 6 10   98.91     LegendNANA
08:00 6.9 6.2 95 7 13   98.88     LegendNANA
09:00 7.2 6.7 97 9 16   98.76     LegendNANA
10:00 7.7 7.2 97 11 16   98.64     LegendNANA
11:00 8.1 7.6 97 10 18   98.52     LegendNANA
12:00 8.2 7.7 97 10 14   98.44     LegendNANA
13:00 8.8 8.3 97 11 12   98.34     LegendNANA
14:00 9.1 8.6 96 11 12   98.23     LegendNANA
15:00 9.7 9.1 96 12 8   98.20     LegendNANA
16:00 9.9 9.3 97 8 7   98.15     LegendNANA
17:00 10.3 9.8 97 5 5   98.09     LegendNANA
18:00 10.3 9.9 97 5 9   98.03     LegendNANA
19:00 10.8 10.4 97 7 8   97.96     LegendNANA
20:00 12.2 11.8 98 11 10   97.91     LegendNANA
21:00 12.8 12.5 98 11 12   97.83     LegendNANA
22:00 13.2 12.8 97 12 15   97.79     LegendNANA
23:00 13.8 13.3 97 11 16   97.67     LegendNANA

Notes on Data Quality.

Legend

  • E = Estimated
  • M = Missing
  • NA = Not Available
  • ‡ = Partner data that is not subject to review by the National Climate Archives
Date modified: